Wetterdaten: aktuell Samstag, 20.07.2024 06:30
Datum Zeit Temperatur Luftfeuchte Luftdruck Regen Wind Richtung Richtung Sonnenschein ET UV Solar Taupunkt Windchill Windböen Empfang
20.07.2024 06:30 19,7 °C 75 % 1012,0 hPa 0,0 l/m² 0,0 km/h (0 Bft) O 82 ° 0 min 0,000 mm 0,0 UV-I 34 W/m² 15,1 °C 19,7 °C 0,0 km/h (0 Bft) 100 %
20.07.2024 06:20 19,8 °C 75 % 1012,1 hPa 0,0 l/m² 0,0 km/h (0 Bft) O 82 ° 0 min 0,000 mm 0,0 UV-I 26 W/m² 15,2 °C 19,8 °C 0,0 km/h (0 Bft) 100 %
20.07.2024 06:10 19,8 °C 74 % 1012,1 hPa 0,0 l/m² 0,0 km/h (0 Bft) O 82 ° 0 min 0,000 mm 0,0 UV-I 19 W/m² 15,0 °C 19,8 °C 0,0 km/h (0 Bft) 100 %
20.07.2024 06:00 19,8 °C 72 % 1012,1 hPa 0,0 l/m² 0,0 km/h (0 Bft) O 82 ° 0 min 0,000 mm 0,0 UV-I 14 W/m² 14,6 °C 19,8 °C 0,0 km/h (0 Bft) 100 %
20.07.2024 05:50 19,7 °C 73 % 1012,1 hPa 0,0 l/m² 0,0 km/h (0 Bft) O 82 ° 0 min 0,000 mm 0,0 UV-I 10 W/m² 14,7 °C 19,7 °C 0,0 km/h (0 Bft) 99 %
20.07.2024 05:40 19,7 °C 74 % 1012,2 hPa 0,0 l/m² 0,0 km/h (0 Bft) O 82 ° 0 min 0,000 mm 0,0 UV-I 5 W/m² 14,9 °C 19,7 °C 0,0 km/h (0 Bft) 100 %
20.07.2024 05:30 19,7 °C 74 % 1012,1 hPa 0,0 l/m² 0,0 km/h (0 Bft) O 82 ° 0 min 0,000 mm 0,0 UV-I 0 W/m² 14,9 °C 19,7 °C 0,0 km/h (0 Bft) 100 %
20.07.2024 05:20 19,7 °C 74 % 1012,2 hPa 0,0 l/m² 0,0 km/h (0 Bft) O 82 ° 0 min 0,000 mm 0,0 UV-I 2 W/m² 14,9 °C 19,7 °C 0,0 km/h (0 Bft) 100 %
20.07.2024 05:10 19,7 °C 76 % 1012,3 hPa 0,0 l/m² 0,0 km/h (0 Bft) O 82 ° 0 min 0,000 mm 0,0 UV-I 0 W/m² 15,3 °C 19,7 °C 0,0 km/h (0 Bft) 100 %
20.07.2024 05:00 19,7 °C 76 % 1012,4 hPa 0,0 l/m² 0,0 km/h (0 Bft) O 82 ° 0 min 0,025 mm 0,0 UV-I 0 W/m² 15,3 °C 19,7 °C 0,0 km/h (0 Bft) 98 %
20.07.2024 04:50 19,6 °C 76 % 1012,5 hPa 0,0 l/m² 0,0 km/h (0 Bft) O 82 ° 0 min 0,000 mm 0,0 UV-I 0 W/m² 15,2 °C 19,6 °C 0,0 km/h (0 Bft) 97 %
20.07.2024 04:40 19,7 °C 76 % 1012,5 hPa 0,0 l/m² 0,0 km/h (0 Bft) O 82 ° 0 min 0,000 mm 0,0 UV-I 0 W/m² 15,3 °C 19,7 °C 0,0 km/h (0 Bft) 97 %
20.07.2024 04:30 19,8 °C 77 % 1012,6 hPa 0,0 l/m² 0,0 km/h (0 Bft) O 82 ° 0 min 0,000 mm 0,0 UV-I 0 W/m² 15,6 °C 19,8 °C 0,0 km/h (0 Bft) 98 %
20.07.2024 04:20 19,8 °C 77 % 1012,6 hPa 0,0 l/m² 0,0 km/h (0 Bft) O 82 ° 0 min 0,000 mm 0,0 UV-I 0 W/m² 15,6 °C 19,8 °C 0,0 km/h (0 Bft) 99 %
20.07.2024 04:10 19,8 °C 76 % 1012,6 hPa 0,0 l/m² 0,3 km/h (0 Bft) O 82 ° 0 min 0,000 mm 0,0 UV-I 0 W/m² 15,4 °C 19,8 °C 3,2 km/h (1 Bft) 99 %
20.07.2024 04:00 19,9 °C 77 % 1012,7 hPa 0,0 l/m² 0,6 km/h (0 Bft) O 82 ° 0 min 0,026 mm 0,0 UV-I 0 W/m² 15,7 °C 19,9 °C 4,8 km/h (1 Bft) 100 %
20.07.2024 03:50 20,1 °C 77 % 1012,7 hPa 0,0 l/m² 0,1 km/h (0 Bft) O 82 ° 0 min 0,000 mm 0,0 UV-I 0 W/m² 15,9 °C 20,1 °C 3,2 km/h (1 Bft) 100 %
20.07.2024 03:40 20,3 °C 77 % 1012,7 hPa 0,0 l/m² 0,0 km/h (0 Bft) O 82 ° 0 min 0,000 mm 0,0 UV-I 0 W/m² 16,1 °C 20,3 °C 0,0 km/h (0 Bft) 100 %
20.07.2024 03:30 20,4 °C 76 % 1012,7 hPa 0,0 l/m² 0,0 km/h (0 Bft) O 82 ° 0 min 0,000 mm 0,0 UV-I 0 W/m² 16,0 °C 20,4 °C 0,0 km/h (0 Bft) 100 %
20.07.2024 03:20 20,6 °C 74 % 1012,7 hPa 0,0 l/m² 0,0 km/h (0 Bft) O 82 ° 0 min 0,000 mm 0,0 UV-I 0 W/m² 15,8 °C 20,6 °C 0,0 km/h (0 Bft) 100 %
20.07.2024 03:10 20,7 °C 73 % 1012,8 hPa 0,0 l/m² 0,0 km/h (0 Bft) O 82 ° 0 min 0,000 mm 0,0 UV-I 0 W/m² 15,7 °C 20,7 °C 0,0 km/h (0 Bft) 100 %
20.07.2024 03:00 20,8 °C 72 % 1012,8 hPa 0,0 l/m² 0,0 km/h (0 Bft) O 82 ° 0 min 0,025 mm 0,0 UV-I 0 W/m² 15,6 °C 20,8 °C 0,0 km/h (0 Bft) 100 %
20.07.2024 02:50 20,8 °C 72 % 1012,8 hPa 0,0 l/m² 0,0 km/h (0 Bft) O 82 ° 0 min 0,000 mm 0,0 UV-I 0 W/m² 15,6 °C 20,8 °C 0,0 km/h (0 Bft) 99 %
20.07.2024 02:40 20,8 °C 72 % 1012,9 hPa 0,0 l/m² 0,0 km/h (0 Bft) O 82 ° 0 min 0,000 mm 0,0 UV-I 0 W/m² 15,6 °C 20,8 °C 0,0 km/h (0 Bft) 97 %
20.07.2024 02:30 20,8 °C 72 % 1013,0 hPa 0,0 l/m² 0,0 km/h (0 Bft) O 82 ° 0 min 0,000 mm 0,0 UV-I 0 W/m² 15,6 °C 20,8 °C 0,0 km/h (0 Bft) 98 %
20.07.2024 02:20 20,9 °C 72 % 1013,2 hPa 0,0 l/m² 0,0 km/h (0 Bft) O 82 ° 0 min 0,000 mm 0,0 UV-I 0 W/m² 15,7 °C 20,9 °C 0,0 km/h (0 Bft) 97 %
20.07.2024 02:10 21,1 °C 72 % 1013,3 hPa 0,0 l/m² 0,0 km/h (0 Bft) O 82 ° 0 min 0,000 mm 0,0 UV-I 0 W/m² 15,8 °C 21,1 °C 0,0 km/h (0 Bft) 100 %
20.07.2024 02:00 21,3 °C 72 % 1013,3 hPa 0,0 l/m² 0,0 km/h (0 Bft) O 82 ° 0 min 0,026 mm 0,0 UV-I 0 W/m² 16,0 °C 21,3 °C 0,0 km/h (0 Bft) 100 %
20.07.2024 01:50 21,6 °C 71 % 1013,4 hPa 0,0 l/m² 0,0 km/h (0 Bft) O 82 ° 0 min 0,000 mm 0,0 UV-I 0 W/m² 16,1 °C 21,6 °C 0,0 km/h (0 Bft) 100 %
20.07.2024 01:40 21,9 °C 70 % 1013,5 hPa 0,0 l/m² 0,0 km/h (0 Bft) O 82 ° 0 min 0,000 mm 0,0 UV-I 0 W/m² 16,2 °C 21,9 °C 0,0 km/h (0 Bft) 100 %
20.07.2024 01:30 21,9 °C 69 % 1013,5 hPa 0,0 l/m² 0,0 km/h (0 Bft) O 82 ° 0 min 0,000 mm 0,0 UV-I 0 W/m² 15,9 °C 21,9 °C 0,0 km/h (0 Bft) 100 %
20.07.2024 01:20 22,2 °C 70 % 1013,6 hPa 0,0 l/m² 0,0 km/h (0 Bft) O 82 ° 0 min 0,000 mm 0,0 UV-I 0 W/m² 16,5 °C 22,2 °C 0,0 km/h (0 Bft) 100 %
20.07.2024 01:10 22,4 °C 72 % 1013,6 hPa 0,0 l/m² 0,0 km/h (0 Bft) O 82 ° 0 min 0,000 mm 0,0 UV-I 0 W/m² 17,1 °C 22,4 °C 0,0 km/h (0 Bft) 100 %
20.07.2024 01:00 22,6 °C 71 % 1013,9 hPa 0,0 l/m² 0,0 km/h (0 Bft) O 82 ° 0 min 0,025 mm 0,0 UV-I 0 W/m² 17,1 °C 22,6 °C 0,0 km/h (0 Bft) 100 %
20.07.2024 00:50 22,8 °C 71 % 1014,0 hPa 0,0 l/m² 0,0 km/h (0 Bft) O 82 ° 0 min 0,000 mm 0,0 UV-I 0 W/m² 17,3 °C 22,8 °C 0,0 km/h (0 Bft) 100 %
20.07.2024 00:40 22,9 °C 70 % 1014,1 hPa 0,0 l/m² 0,0 km/h (0 Bft) O 82 ° 0 min 0,000 mm 0,0 UV-I 0 W/m² 17,1 °C 22,9 °C 0,0 km/h (0 Bft) 97 %
20.07.2024 00:30 22,9 °C 69 % 1014,1 hPa 0,0 l/m² 0,0 km/h (0 Bft) O 82 ° 0 min 0,000 mm 0,0 UV-I 0 W/m² 16,9 °C 22,9 °C 1,6 km/h (1 Bft) 98 %
20.07.2024 00:20 23,2 °C 69 % 1014,2 hPa 0,0 l/m² 0,0 km/h (0 Bft) O 82 ° 0 min 0,000 mm 0,0 UV-I 0 W/m² 17,2 °C 23,2 °C 0,0 km/h (0 Bft) 97 %
20.07.2024 00:10 23,3 °C 70 % 1014,4 hPa 0,0 l/m² 0,0 km/h (0 Bft) O 82 ° 0 min 0,000 mm 0,0 UV-I 0 W/m² 17,5 °C 23,3 °C 0,0 km/h (0 Bft) 99 %
20.07.2024 00:00 23,5 °C 69 % 1014,3 hPa 0,0 l/m² 0,0 km/h (0 Bft) O 82 ° 0 min 0,000 mm 0,0 UV-I 0 W/m² 17,5 °C 23,5 °C 0,0 km/h (0 Bft) 100 %
19.07.2024 23:50 23,6 °C 68 % 1014,3 hPa 0,0 l/m² 0,0 km/h (0 Bft) O 82 ° 0 min 0,000 mm 0,0 UV-I 0 W/m² 17,3 °C 23,6 °C 0,0 km/h (0 Bft) 100 %
19.07.2024 23:40 23,7 °C 65 % 1014,3 hPa 0,0 l/m² 0,0 km/h (0 Bft) O 82 ° 0 min 0,000 mm 0,0 UV-I 0 W/m² 16,7 °C 23,7 °C 0,0 km/h (0 Bft) 100 %
19.07.2024 23:30 24,1 °C 66 % 1014,4 hPa 0,0 l/m² 0,0 km/h (0 Bft) O 82 ° 0 min 0,000 mm 0,0 UV-I 0 W/m² 17,3 °C 24,1 °C 0,0 km/h (0 Bft) 100 %
19.07.2024 23:20 24,3 °C 67 % 1014,4 hPa 0,0 l/m² 0,0 km/h (0 Bft) O 82 ° 0 min 0,000 mm 0,0 UV-I 0 W/m² 17,8 °C 24,3 °C 0,0 km/h (0 Bft) 100 %
19.07.2024 23:10 24,6 °C 66 % 1014,4 hPa 0,0 l/m² 0,0 km/h (0 Bft) O 82 ° 0 min 0,000 mm 0,0 UV-I 0 W/m² 17,8 °C 24,6 °C 0,0 km/h (0 Bft) 100 %
19.07.2024 23:00 24,8 °C 60 % 1014,4 hPa 0,0 l/m² 0,0 km/h (0 Bft) O 82 ° 0 min 0,051 mm 0,0 UV-I 0 W/m² 16,5 °C 24,8 °C 0,0 km/h (0 Bft) 100 %
19.07.2024 22:50 25,0 °C 61 % 1014,5 hPa 0,0 l/m² 0,0 km/h (0 Bft) O 82 ° 0 min 0,000 mm 0,0 UV-I 0 W/m² 16,9 °C 25,0 °C 0,0 km/h (0 Bft) 99 %
19.07.2024 22:40 25,1 °C 59 % 1014,5 hPa 0,0 l/m² 0,0 km/h (0 Bft) O 82 ° 0 min 0,000 mm 0,0 UV-I 0 W/m² 16,5 °C 25,1 °C 0,0 km/h (0 Bft) 97 %
19.07.2024 22:30 25,3 °C 57 % 1014,4 hPa 1,0 l/m² 0,0 km/h (0 Bft) O 82 ° 0 min 0,000 mm 0,0 UV-I 0 W/m² 16,2 °C 25,3 °C 0,0 km/h (0 Bft) 98 %
19.07.2024 22:20 25,5 °C 57 % 1014,4 hPa 0,0 l/m² 0,0 km/h (0 Bft) O 82 ° 0 min 0,000 mm 0,0 UV-I 0 W/m² 16,3 °C 25,5 °C 0,0 km/h (0 Bft) 98 %
19.07.2024 22:10 25,7 °C 57 % 1014,3 hPa 0,0 l/m² 0,0 km/h (0 Bft) O 82 ° 0 min 0,000 mm 0,0 UV-I 0 W/m² 16,5 °C 25,7 °C 0,0 km/h (0 Bft) 100 %
19.07.2024 22:00 25,9 °C 56 % 1014,3 hPa 0,0 l/m² 0,0 km/h (0 Bft) O 82 ° 0 min 0,000 mm 0,0 UV-I 0 W/m² 16,4 °C 25,9 °C 0,0 km/h (0 Bft) 100 %
19.07.2024 21:50 26,1 °C 56 % 1014,3 hPa 0,0 l/m² 0,0 km/h (0 Bft) O 82 ° 0 min 0,000 mm 0,0 UV-I 0 W/m² 16,6 °C 26,1 °C 0,0 km/h (0 Bft) 100 %
19.07.2024 21:40 26,3 °C 57 % 1014,3 hPa 0,0 l/m² 0,0 km/h (0 Bft) O 82 ° 0 min 0,000 mm 0,0 UV-I 0 W/m² 17,1 °C 26,3 °C 0,0 km/h (0 Bft) 100 %
19.07.2024 21:30 26,4 °C 57 % 1014,3 hPa 0,0 l/m² 0,0 km/h (0 Bft) O 82 ° 0 min 0,000 mm 0,0 UV-I 0 W/m² 17,2 °C 26,4 °C 0,0 km/h (0 Bft) 100 %
19.07.2024 21:20 26,7 °C 58 % 1014,3 hPa 0,0 l/m² 0,0 km/h (0 Bft) O 82 ° 0 min 0,000 mm 0,0 UV-I 0 W/m² 17,7 °C 26,7 °C 0,0 km/h (0 Bft) 100 %
19.07.2024 21:10 26,8 °C 58 % 1014,2 hPa 0,0 l/m² 0,0 km/h (0 Bft) O 82 ° 0 min 0,000 mm 0,0 UV-I 0 W/m² 17,8 °C 26,8 °C 0,0 km/h (0 Bft) 100 %
19.07.2024 21:00 27,0 °C 59 % 1014,2 hPa 0,0 l/m² 0,0 km/h (0 Bft) O 82 ° 0 min 0,025 mm 0,0 UV-I 0 W/m² 18,3 °C 27,0 °C 0,0 km/h (0 Bft) 100 %
19.07.2024 20:50 27,1 °C 59 % 1014,1 hPa 0,0 l/m² 0,0 km/h (0 Bft) O 82 ° 0 min 0,000 mm 0,0 UV-I 4 W/m² 18,4 °C 27,1 °C 0,0 km/h (0 Bft) 97 %
19.07.2024 20:40 27,3 °C 58 % 1014,0 hPa 0,0 l/m² 0,0 km/h (0 Bft) O 82 ° 0 min 0,000 mm 0,0 UV-I 13 W/m² 18,3 °C 27,3 °C 0,0 km/h (0 Bft) 98 %
19.07.2024 20:30 27,5 °C 57 % 1014,0 hPa 0,0 l/m² 0,0 km/h (0 Bft) O 82 ° 0 min 0,000 mm 0,0 UV-I 23 W/m² 18,2 °C 27,5 °C 0,0 km/h (0 Bft) 97 %
19.07.2024 20:20 27,7 °C 56 % 1013,9 hPa 0,0 l/m² 0,0 km/h (0 Bft) O 82 ° 0 min 0,000 mm 0,0 UV-I 31 W/m² 18,1 °C 27,7 °C 0,0 km/h (0 Bft) 99 %
19.07.2024 20:10 27,8 °C 55 % 1013,9 hPa 0,0 l/m² 0,0 km/h (0 Bft) O 82 ° 0 min 0,000 mm 0,0 UV-I 50 W/m² 17,9 °C 27,8 °C 0,0 km/h (0 Bft) 100 %
19.07.2024 20:00 27,9 °C 54 % 1013,7 hPa 0,0 l/m² 0,0 km/h (0 Bft) O 82 ° 0 min 0,051 mm 0,0 UV-I 53 W/m² 17,7 °C 27,9 °C 0,0 km/h (0 Bft) 99 %
19.07.2024 19:50 28,1 °C 53 % 1013,7 hPa 0,0 l/m² 0,0 km/h (0 Bft) O 82 ° 0 min 0,000 mm 0,0 UV-I 50 W/m² 17,6 °C 28,1 °C 0,0 km/h (0 Bft) 100 %
19.07.2024 19:40 28,2 °C 52 % 1013,7 hPa 0,0 l/m² 0,0 km/h (0 Bft) O 82 ° 0 min 0,000 mm 0,0 UV-I 65 W/m² 17,4 °C 28,2 °C 0,0 km/h (0 Bft) 100 %
19.07.2024 19:30 28,3 °C 51 % 1013,9 hPa 0,0 l/m² 0,1 km/h (0 Bft) O 82 ° 0 min 0,000 mm 0,0 UV-I 81 W/m² 17,2 °C 28,3 °C 1,6 km/h (1 Bft) 100 %
19.07.2024 19:20 28,4 °C 50 % 1014,0 hPa 0,0 l/m² 0,4 km/h (0 Bft) O 82 ° 0 min 0,000 mm 0,0 UV-I 94 W/m² 17,0 °C 28,4 °C 3,2 km/h (1 Bft) 100 %
19.07.2024 19:10 28,5 °C 49 % 1014,0 hPa 0,0 l/m² 1,5 km/h (1 Bft) O 82 ° 0 min 0,000 mm 0,0 UV-I 83 W/m² 16,7 °C 28,5 °C 6,4 km/h (2 Bft) 99 %
_ Min-Zeit 04:40 14:40 06:30 - 07:00 - - - - - - 06:00 04:50 07:00 16:30
Minimum _ 19,6 °C 40 % 1012,0 hPa - 0,0 km/h (0 Bft) - - - - - - 14,6 °C 19,6 °C 0,0 km/h (0 Bft) 96 %
_ Max-Zeit 15:00 07:10 08:00 22:30 14:00 - - 07:20 14:10 12:50 14:30 20:50 15:00 13:30 07:00
Maximum _ 31,4 °C 82 % 1019,5 hPa 1,0 l/m² 4,6 km/h
O (1 Bft)
- - 10 min 0,584 mm 6,3 UV-I 934 W/m² 18,4 °C 31,4 °C 11,3 km/h
O (2 Bft)
100 %
Durchschnitt _ 25,3 °C 60 % 1015,6 hPa #1,0 l/m² 0,9 km/h (0 Bft) O - #0 min. #0,127 mm 0,0 UV-I 3 W/m² 16,6 °C 25,3 °C 3,4 km/h (1 Bft) 99 %